Regional Weather Roundup
Issued by NWS

Home | Current Version | Previous Version | Graphics & Text | Print | Product List | Glossary On
Versions: 1 2 3 4 5 6 7 8 9 10 11 12 13 14 15 16 17 18 19 20 21 22 23 24 25 26 27 28 29 30 31 32 33 34 35 36 37 38 39 40 41 42 43 44 45 46 47 48 49 50
000
ASUS43 KIND 211809
RWRIN

WEATHER ROUNDUP FOR INDIANA
NATIONAL WEATHER SERVICE INDIANAPOLIS IN
200 PM EDT TUE OCT 21 2014

NOTE: "FAIR" INDICATES FEW OR NO CLOUDS BELOW 12,000 FEET WITH NO
SIGNIFICANT WEATHER AND/OR OBSTRUCTIONS TO VISIBILITY.

* - STATION DOES NOT REPORT WEATHER SUCH AS PRECIPITATION OR FOG.

+ - STATION NOT QUALITY CONTROLLED BY THE NATIONAL WEATHER SERVICE.
    USE DATA WITH CAUTION...ESPECIALLY DEWPOINT AND RELATIVE
    HUMIDITY OBSERVATIONS.

INZ001>003-010>013-019-020-211900-
NORTHWEST INDIANA

CITY           SKY/WX    TMP DP  RH WIND       PRES   REMARKS
GARY /AIRPORT/ CLOUDY    52  45  76 N12G23    30.16S
KNOX *+        CLOUDY    51  44  77 N12       30.12R
LA PORTE +     CLOUDY    52  47  85 N12G17    30.14R
6HR MIN TEMP:  48; 6HR MAX TEMP:  52; 6HR PCP:  0.04;

MICHIGAN CITY+ CLOUDY    52  41  66 N18G25    30.14R
MONTICELLO +   DRIZZLE   52  46  80 N8G23     30.11S
RENSSELAER +   PTSUNNY   54  46  76 N12G20    30.13S
VALPARAISO     CLOUDY    52  44  74 N9        30.14R
6HR MIN TEMP:  47; 6HR MAX TEMP:  54; 6HR PCP: TRACE;


$$

LMZ046-743>745-211900-
SOUTHERN LAKE MICHIGAN

STATION/POSITION TIME  TEMP WIND        PRES
                       AIR  DIR/SP/G
                 (UTC) (F)  (DEG/KT/KT) (MB)
MICHIGAN CITY    1800   51  360/ 22/ 25   N/A

$$

INZ004-005-014>016-021>024-211900-
NORTH CENTRAL INDIANA

CITY           SKY/WX    TMP DP  RH WIND       PRES   REMARKS
ELKHART        CLOUDY    50  41  71 N7        30.12S
GOSHEN         CLOUDY    50  43  77 NE12      30.11R
6HR MIN TEMP:  46; 6HR MAX TEMP:  52; 6HR PCP: TRACE;

LOGANSPORT +   CLOUDY    54  43  66 NW7       30.11S
PERU/GRISSOM   CLOUDY    54  47  77 N12       30.09S
6HR MIN TEMP:  48; 6HR MAX TEMP:  55;

ROCHESTER +    CLOUDY    55  43  62 NE9       30.10S
SOUTH BEND     CLOUDY    53  41  63 N15G21    30.13S
6HR MIN TEMP:  47; 6HR MAX TEMP:  55; 6HR PCP: TRACE;

WARSAW +       CLOUDY    50  43  76 N9        30.10S

$$

INZ006>009-017-018-025>027-211900-
NORTHEAST INDIANA

CITY           SKY/WX    TMP DP  RH WIND       PRES   REMARKS
ANGOLA *+      CLOUDY    48  34  57 N8        30.09S
AUBURN +       CLOUDY    52  41  66 N7        30.09R
FORT WAYNE     CLOUDY    50  43  77 N15       30.09S
6HR MIN TEMP:  47; 6HR MAX TEMP:  51;

HUNTINGTON +   CLOUDY    51  43  74 N9        30.09R
6HR MIN TEMP:  44; 6HR MAX TEMP:  51;


$$

INZ028-029-035-036-043>045-051>053-211900-
WEST CENTRAL INDIANA

CITY           SKY/WX    TMP DP  RH WIND       PRES   REMARKS
GREENCASTLE +  CLOUDY    54  41  62 N9        30.11S
LAFAYETTE      CLOUDY    54  41  61 N10       30.11F
6HR MIN TEMP:  47; 6HR MAX TEMP:  56; 6HR PCP: TRACE;

TERRE HAUTE    CLOUDY    57  41  55 NW6       30.12S
6HR MIN TEMP:  49; 6HR MAX TEMP:  58;


$$

INZ030>032-037>040-046>048-054>057-064-065-211900-
CENTRAL INDIANA

CITY           SKY/WX    TMP DP  RH WIND       PRES   REMARKS
ANDERSON       CLOUDY    54  41  62 N17G29    30.08S
CP ATTERBURY + CLOUDY    55  43  62 NW9       30.09F
COLUMBUS       PTSUNNY   54  45  71 NW13      30.08F
FRANKFORT +    PTSUNNY   58  44  61 NW16      30.11S HAZE
INDIANAPOLIS   PTSUNNY   54  41  61 N9        30.08F
6HR MIN TEMP:  47; 6HR MAX TEMP:  56; 6HR PCP:  0.02;

-EAGLE CREEK   PTSUNNY   54  41  61 N14       30.08F
6HR MIN TEMP:  47; 6HR MAX TEMP:  56; 6HR PCP:  0.01;

KOKOMO *+      CLOUDY    54  43  66 N15       30.09S
MARION +       CLOUDY    53  40  62 N12       30.09S
MT COMFORT *+  MOSUNNY   55  34  44 N14       30.08S
SHELBYVILLE    CLOUDY    57  40  52 NW12      30.07S
6HR MIN TEMP:  50; 6HR MAX TEMP:  58;

ZIONSVILLE +   PTSUNNY   57  39  51 NW15      30.09S
6HR MIN TEMP:  47; 6HR MAX TEMP:  57;


$$

INZ033-034-041-042-049-050-058-059-211900-
EAST CENTRAL INDIANA

CITY           SKY/WX    TMP DP  RH WIND       PRES   REMARKS
MUNCIE         CLOUDY    53  42  66 N14       30.07S
6HR MIN TEMP:  48; 6HR MAX TEMP:  53;


$$

INZ060-061-067>069-081>083-085>088-211900-
SOUTHWEST INDIANA

CITY           SKY/WX    TMP DP  RH WIND       PRES   REMARKS
EVANSVILLE     MOSUNNY   64  45  49 N12       30.10S
6HR MIN TEMP:  45; 6HR MAX TEMP:  64;

HUNTINGBURG *+ CLOUDY    59  45  58 N8        30.10F
6HR MIN TEMP:  45; 6HR MAX TEMP:  61;

WASHINGTON +   PTSUNNY   60  41  51 N13       30.10S
6HR MIN TEMP:  47; 6HR MAX TEMP:  62;


$$

INZ062-063-066-070>080-084-089>092-211900-
SOUTH CENTRAL AND SOUTHEAST INDIANA

CITY           SKY/WX    TMP DP  RH WIND       PRES   REMARKS
BLOOMINGTON    CLOUDY    54  43  66 N10       30.10S
6HR MIN TEMP:  47; 6HR MAX TEMP:  57;


$$




USA.gov is the U.S. government's official web portal to all federal, state and local government web resources and services.